User: anonymous   Login
Location: Fort Wayne
(41.1310°N, 85.1290°W)
Time: 00:14:58
(UTC-05:00)
Language:

OPAL - Orbit

View from above orbital plane
View from above orbital plane
View from above satellite
View from above satellite

Ground track
Ground track

The orbit data is extracted from the following two-line orbital elements,

1 26063U 00004C   17346.15778416 -.00000008 +00000-0 +17242-4 0  9990
2 26063 100.2174 022.8525 0036707 166.1663 194.0531 14.36683835936930
Epoch (UTC): 12 December 2017 03:47:12
Eccentricity: 0.0036707
inclination: 100.2174°
perigee height: 743 km
apogee height: 796 km
right ascension of ascending node: 22.8525°
argument of perigee: 166.1663°
revolutions per day: 14.36683835
mean anomaly at epoch: 194.0531°
orbit number at epoch: 93693

The dashed part of the orbit path shows where the satellite is in the earth's shadow,  

DLR